[[{"header":{"parameterUnit":"m.s-1","parameterCategory":1,"la1":30.2991,"la2":30.254,"lo1":-89.0895,"lo2":-89.0444,"dy":0.0017,"dx":0.0017,"nx":28,"ny":28,"refTime":"2024-03-07T03:00:00:Z","depth":0,"parameterNumber":2,"parameterNumberName":"U-component_of_WINDS"},"data":[0,0,0,0,0,0,0,0,0,0,0,0,0,0,0,0,0,0,0,0,0,0,0,0,0,0,0,0,0,0,0,0,0,0,0,0,0,0,0,0,0,0,0,0,0,0,0,0,0,0,0,0,0,0,0,0,0,0,-0.5473,-0.5473,0,-0.5449,-0.5449,-0.5449,-0.5428,-0.5427,-0.5427,-0.5427,-0.5401,-0.5401,-0.54,0,0,0,0,0,0,0,0,0,0,0,0,0,-0.5498,-0.5498,-0.5473,-0.5473,-0.5472,-0.5449,-0.5449,-0.5449,-0.5428,-0.5427,-0.5427,-0.5427,-0.5401,-0.5401,-0.54,0,0,0,0,0,0,0,0,0,0,0,0,0,-0.5482,-0.5498,-0.5473,-0.5459,-0.5458,-0.5449,-0.5449,-0.5449,-0.5428,-0.5427,-0.5427,-0.5427,-0.5402,-0.5401,-0.54,-0.5403,0,0,-0.5398,-0.5398,0,0,0,0,0,0,0,0,-0.5483,-0.5481,-0.5461,-0.546,-0.5458,-0.5441,-0.5449,-0.5433,-0.5428,-0.5439,-0.5427,-0.5427,-0.5415,-0.5413,-0.5409,-0.5402,-0.5401,-0.5398,-0.5398,-0.5397,-0.5397,0,0,0,0,0,0,0,-0.5484,-0.5482,-0.5463,-0.5461,-0.5459,-0.5454,-0.5451,-0.5446,-0.5429,-0.5438,-0.5436,-0.5434,-0.5414,-0.541,-0.5408,-0.5401,-0.5398,-0.5398,-0.5397,-0.5397,-0.5395,-0.5395,0,0,0,0,0,0,-0.5488,-0.5483,-0.5464,-0.5463,-0.547,-0.5453,-0.545,-0.5447,-0.5429,-0.5426,-0.5434,-0.5433,-0.5411,-0.5409,-0.5408,-0.541,-0.5397,-0.5397,-0.5396,-0.5394,-0.5395,-0.5395,0,0,0,0,0,0,-0.5488,-0.5486,-0.5465,-0.5473,-0.547,-0.5453,-0.545,-0.5447,-0.5443,-0.5426,-0.5423,-0.5434,-0.5411,-0.5408,-0.5405,-0.5409,-0.5396,-0.5396,-0.5394,-0.5395,-0.5395,-0.5415,0,0,0,0,0,0,-0.5489,-0.5487,-0.5488,-0.5473,-0.5469,-0.5463,-0.545,-0.5446,-0.5442,-0.544,-0.5425,-0.5422,-0.541,-0.5406,-0.5404,-0.5408,-0.5395,-0.5394,-0.5394,-0.5395,-0.5414,-0.5417,-0.5419,0,0,0,0,0,-0.549,-0.5494,-0.5488,-0.5486,-0.5471,-0.5464,-0.5461,-0.5449,-0.5442,-0.5443,-0.5433,-0.5422,-0.5409,-0.5406,-0.5403,-0.5407,-0.5393,-0.5394,-0.5395,-0.5413,-0.5416,-0.5419,0,0,0,0,0,0,-0.551,-0.5492,-0.5485,-0.5484,-0.5476,-0.546,-0.5461,-0.5452,-0.5444,-0.5443,-0.5427,-0.5423,-0.5422,-0.5414,-0.5411,-0.5409,-0.54,-0.54,-0.5414,-0.5417,-0.5419,-0.5421,-0.5395,0,0,0,0,0,-0.5514,-0.551,-0.5495,-0.5496,-0.5492,-0.5477,-0.5474,-0.5465,-0.5455,-0.5451,-0.544,-0.543,-0.5424,-0.542,-0.5413,-0.5413,-0.5409,-0.5414,-0.5416,-0.5418,-0.5419,-0.5419,-0.5421,-0.5398,-0.5398,-0.5398,0,0,-0.5523,-0.5513,-0.5511,-0.5499,-0.5492,-0.5488,-0.5474,-0.5471,-0.5467,-0.545,-0.5446,-0.5438,-0.5426,-0.5424,-0.5423,-0.5418,-0.5424,-0.5419,-0.5421,-0.5421,-0.542,-0.5422,-0.5424,-0.5399,-0.5398,-0.5398,0,0,-0.5537,-0.5529,-0.5529,-0.5522,-0.551,-0.55,-0.55,-0.5486,-0.548,-0.5476,-0.5463,-0.5458,-0.5448,-0.544,-0.5434,-0.5446,-0.5436,-0.5444,-0.5455,-0.5455,-0.5457,-0.5458,-0.5463,-0.5464,-0.5444,-0.5444,-0.5445,0,-0.5549,-0.5544,-0.553,-0.5527,-0.5523,-0.5507,-0.5507,-0.55,-0.5487,-0.5484,-0.5478,-0.5464,-0.5455,-0.5451,-0.5454,-0.545,-0.545,-0.5446,-0.5458,-0.5459,-0.546,-0.5464,-0.5466,-0.5446,-0.5445,-0.5445,-0.5445,0,-0.5559,-0.5555,-0.5557,-0.5545,-0.554,-0.5539,-0.5525,-0.5521,-0.5513,-0.5503,-0.5499,-0.5488,-0.5478,-0.5477,-0.5468,-0.5472,-0.5469,-0.5461,-0.5451,-0.5464,-0.5467,-0.5469,-0.5447,-0.5447,-0.5446,-0.5446,0,0,-0.5585,-0.5566,-0.5567,-0.5562,-0.5548,-0.5544,-0.5542,-0.5534,-0.5531,-0.5522,-0.552,-0.5511,-0.5504,-0.5497,-0.5487,-0.5487,-0.5497,-0.5479,-0.5478,-0.5483,-0.5501,-0.5508,-0.551,-0.5491,-0.5491,-0.5491,-0.5502,0,-0.5597,-0.5593,-0.5581,-0.558,-0.5577,-0.5562,-0.556,-0.5551,-0.5542,-0.5537,-0.5527,-0.5521,-0.5512,-0.5508,-0.5507,-0.5496,-0.5501,-0.5495,-0.5488,-0.5488,-0.5492,-0.5512,-0.5519,-0.553,-0.5504,-0.5504,-0.5504,0,-0.5611,-0.5604,-0.5603,-0.559,-0.5588,-0.5586,-0.5578,-0.5573,-0.5563,-0.5556,-0.555,-0.5539,-0.5535,-0.5526,-0.5521,-0.5517,-0.5513,-0.5508,-0.5508,-0.5507,-0.5497,-0.5512,-0.5533,-0.5535,-0.5506,-0.5506,-0.5506,0,-0.5631,-0.5621,-0.5619,-0.5615,-0.5599,-0.5599,-0.5592,-0.5581,-0.5577,-0.5569,-0.5566,-0.5557,-0.5553,-0.5546,-0.5533,-0.5528,-0.553,-0.5519,-0.5524,-0.5524,-0.5526,-0.5526,-0.5547,-0.5522,-0.5522,-0.5522,-0.5522,0,-0.5646,-0.5646,-0.5628,-0.5627,-0.5627,-0.5612,-0.5612,-0.5604,-0.5595,-0.5591,-0.5578,-0.5575,-0.5558,-0.5553,-0.5542,-0.554,-0.5538,-0.5532,-0.553,-0.5534,-0.5535,-0.5531,-0.553,-0.5523,-0.5523,-0.5523,-0.5523,0,-0.5668,-0.5656,-0.5653,-0.5639,-0.5635,-0.5635,-0.5623,-0.5621,-0.5611,-0.5608,-0.5606,-0.5591,-0.5584,-0.5571,-0.556,-0.5553,-0.5553,-0.5548,-0.5557,-0.5555,-0.5561,-0.5561,-0.5582,-0.5584,-0.5558,-0.5558,-0.5558,0,-0.5679,-0.5679,-0.5664,-0.5662,-0.5656,-0.5651,-0.5647,-0.5633,-0.5629,-0.5617,-0.5617,-0.5609,-0.5603,-0.5593,-0.5581,-0.5573,-0.5567,-0.5575,-0.5566,-0.557,-0.5568,-0.5568,-0.5568,-0.5577,-0.5578,-0.5578,-0.5578,0,-0.5699,-0.5693,-0.5688,-0.5681,-0.5676,-0.5669,-0.5662,-0.566,-0.5644,-0.564,-0.5634,-0.5629,-0.5619,-0.5611,-0.5602,-0.5594,-0.5584,-0.5581,-0.5582,-0.5587,-0.5592,-0.559,-0.5563,-0.5581,-0.5581,-0.5581,-0.558,-0.558,-0.5716,-0.5715,-0.5705,-0.57,-0.5693,-0.5686,-0.5684,-0.5675,-0.5669,-0.566,-0.5652,-0.5647,-0.5636,-0.5622,-0.5615,-0.561,-0.5605,-0.5606,-0.5606,-0.5607,-0.5609,-0.5593,-0.5608,-0.5608,-0.5608,-0.5608,-0.5608,0,-0.5736,-0.5729,-0.5724,-0.5715,-0.571,-0.5701,-0.5692,-0.5689,-0.5685,-0.5676,-0.567,-0.5663,-0.5656,-0.5643,-0.5635,-0.5633,-0.5628,-0.5632,-0.5632,-0.5631,-0.5614,-0.5614,-0.5636,-0.5636,-0.5636,-0.5636,-0.5636,-0.5636,-0.5746,-0.5745,-0.5738,-0.5733,-0.5725,-0.572,-0.5716,-0.571,-0.5703,-0.5696,-0.569,-0.5682,-0.5672,-0.5663,-0.5656,-0.5652,-0.565,-0.5655,-0.565,-0.5634,-0.5632,-0.5629,-0.5629,-0.5654,-0.5654,-0.5667,-0.5667,-0.5667]},{"header":{"parameterUnit":"m.s-1","parameterCategory":1,"la1":30.2991,"la2":30.254,"lo1":-89.0895,"lo2":-89.0444,"dy":0.0017,"dx":0.0017,"nx":28,"ny":28,"refTime":"2024-03-07T03:00:00:Z","depth":0,"parameterNumber":3,"parameterNumberName":"V-component_of_WINDS"},"data":[0,0,0,0,0,0,0,0,0,0,0,0,0,0,0,0,0,0,0,0,0,0,0,0,0,0,0,0,0,0,0,0,0,0,0,0,0,0,0,0,0,0,0,0,0,0,0,0,0,0,0,0,0,0,0,0,0,0,-0.4267,-0.4267,0,-0.4232,-0.4232,-0.4231,-0.4232,-0.4232,-0.4233,-0.4233,-0.4196,-0.4195,-0.4194,0,0,0,0,0,0,0,0,0,0,0,0,0,-0.4335,-0.4333,-0.4267,-0.4267,-0.4266,-0.4232,-0.4232,-0.4231,-0.4232,-0.4232,-0.4233,-0.4233,-0.4197,-0.4195,-0.4193,0,0,0,0,0,0,0,0,0,0,0,0,0,-0.4303,-0.4333,-0.4267,-0.4262,-0.4262,-0.4232,-0.4232,-0.4231,-0.4231,-0.4232,-0.4233,-0.4234,-0.4197,-0.4195,-0.4193,-0.4166,0,0,-0.4187,-0.4186,0,0,0,0,0,0,0,0,-0.4305,-0.43,-0.4263,-0.4263,-0.4262,-0.4237,-0.4242,-0.4209,-0.4231,-0.4243,-0.4233,-0.4234,-0.4209,-0.4206,-0.4198,-0.4164,-0.4163,-0.4187,-0.4185,-0.4184,-0.4184,0,0,0,0,0,0,0,-0.4307,-0.4302,-0.4253,-0.4263,-0.4262,-0.4262,-0.4258,-0.4236,-0.4222,-0.4242,-0.4242,-0.4238,-0.4209,-0.42,-0.4197,-0.4162,-0.4187,-0.4185,-0.4183,-0.4183,-0.4107,-0.4106,0,0,0,0,0,0,-0.431,-0.4304,-0.4254,-0.4252,-0.4285,-0.426,-0.4256,-0.4244,-0.4223,-0.422,-0.4237,-0.4238,-0.4203,-0.42,-0.4196,-0.4164,-0.4184,-0.4182,-0.4181,-0.4107,-0.4106,-0.4106,0,0,0,0,0,0,-0.4312,-0.4306,-0.4256,-0.4278,-0.4272,-0.4258,-0.4245,-0.4243,-0.4234,-0.4219,-0.4217,-0.4231,-0.4204,-0.4199,-0.4174,-0.4163,-0.4181,-0.418,-0.4108,-0.4107,-0.4106,-0.4099,0,0,0,0,0,0,-0.4314,-0.4306,-0.4296,-0.4278,-0.427,-0.4234,-0.4244,-0.4242,-0.4231,-0.4231,-0.4212,-0.421,-0.4204,-0.4177,-0.4172,-0.416,-0.4178,-0.4109,-0.4108,-0.4106,-0.41,-0.4098,-0.4096,0,0,0,0,0,-0.4316,-0.4294,-0.4295,-0.4289,-0.4257,-0.4233,-0.4229,-0.4223,-0.423,-0.4219,-0.421,-0.4211,-0.4165,-0.4175,-0.4169,-0.4156,-0.411,-0.4108,-0.4106,-0.4101,-0.4098,-0.4096,0,0,0,0,0,0,-0.4311,-0.4292,-0.4292,-0.4264,-0.4251,-0.4234,-0.422,-0.422,-0.4204,-0.4205,-0.4198,-0.4193,-0.4169,-0.416,-0.4171,-0.413,-0.4138,-0.4135,-0.4136,-0.4133,-0.4131,-0.4134,-0.4176,0,0,0,0,0,-0.4306,-0.4289,-0.4274,-0.425,-0.4244,-0.4233,-0.4223,-0.4219,-0.4204,-0.4198,-0.4187,-0.4173,-0.4155,-0.4144,-0.4127,-0.4099,-0.4096,-0.4088,-0.4085,-0.4084,-0.4081,-0.4067,-0.4064,-0.41,-0.41,-0.41,0,0,-0.4297,-0.4285,-0.4274,-0.4249,-0.4238,-0.4221,-0.4228,-0.4209,-0.4196,-0.4195,-0.4172,-0.4163,-0.4146,-0.4121,-0.4108,-0.4112,-0.4071,-0.4081,-0.408,-0.4079,-0.4065,-0.4062,-0.4059,-0.4099,-0.4099,-0.4099,0,0,-0.4271,-0.426,-0.424,-0.4229,-0.4213,-0.4206,-0.4201,-0.4185,-0.4179,-0.4155,-0.4155,-0.414,-0.4109,-0.4098,-0.4088,-0.406,-0.4061,-0.4055,-0.4043,-0.403,-0.4027,-0.4025,-0.4016,-0.4012,-0.4052,-0.4052,-0.4052,0,-0.4261,-0.4235,-0.423,-0.4211,-0.4201,-0.42,-0.4181,-0.417,-0.4149,-0.4142,-0.4146,-0.411,-0.4098,-0.407,-0.4064,-0.4056,-0.4051,-0.4057,-0.4028,-0.4025,-0.4023,-0.4014,-0.4011,-0.4052,-0.4052,-0.4052,-0.4052,0,-0.4225,-0.4207,-0.4193,-0.4173,-0.4161,-0.4142,-0.4134,-0.4122,-0.4121,-0.4114,-0.409,-0.4077,-0.4058,-0.4051,-0.4048,-0.4023,-0.4026,-0.403,-0.4038,-0.4019,-0.4011,-0.4008,-0.4051,-0.4051,-0.4052,-0.4052,0,0,-0.4194,-0.4173,-0.4168,-0.4159,-0.4142,-0.4128,-0.4109,-0.4091,-0.4082,-0.4068,-0.4052,-0.4028,-0.4031,-0.402,-0.4017,-0.4005,-0.3985,-0.401,-0.4009,-0.4006,-0.3958,-0.3956,-0.3952,-0.3985,-0.3985,-0.3984,-0.396,0,-0.4167,-0.4134,-0.4129,-0.41,-0.4084,-0.4085,-0.4069,-0.4056,-0.405,-0.4035,-0.4028,-0.4011,-0.4016,-0.401,-0.3998,-0.399,-0.3975,-0.3992,-0.3972,-0.3971,-0.3976,-0.3948,-0.3945,-0.3923,-0.3956,-0.3956,-0.3955,0,-0.4131,-0.4117,-0.4086,-0.4073,-0.4066,-0.4051,-0.4036,-0.4022,-0.4008,-0.4004,-0.3993,-0.3991,-0.3973,-0.3982,-0.3957,-0.3968,-0.3959,-0.3954,-0.3953,-0.3951,-0.3962,-0.3946,-0.3915,-0.3912,-0.395,-0.395,-0.3951,0,-0.4113,-0.4086,-0.4065,-0.4058,-0.4041,-0.4031,-0.4023,-0.4011,-0.4001,-0.3987,-0.3981,-0.3964,-0.3956,-0.3943,-0.3938,-0.3945,-0.3913,-0.3922,-0.391,-0.391,-0.3903,-0.3904,-0.3872,-0.3897,-0.3897,-0.3897,-0.3897,0,-0.4083,-0.4065,-0.4057,-0.4044,-0.4024,-0.4019,-0.3999,-0.3992,-0.3981,-0.3967,-0.3966,-0.3953,-0.3946,-0.3932,-0.3927,-0.3907,-0.3903,-0.39,-0.3899,-0.39,-0.3901,-0.3895,-0.3897,-0.3896,-0.3896,-0.3896,-0.3897,0,-0.4059,-0.4053,-0.403,-0.4017,-0.4013,-0.3999,-0.3987,-0.3975,-0.3969,-0.3952,-0.3947,-0.3938,-0.3922,-0.3915,-0.3894,-0.3891,-0.3869,-0.3869,-0.3874,-0.3874,-0.3863,-0.3864,-0.3826,-0.3821,-0.3849,-0.3849,-0.3848,0,-0.4041,-0.4028,-0.4013,-0.4004,-0.3997,-0.3982,-0.3972,-0.3967,-0.3957,-0.3942,-0.3931,-0.3915,-0.3902,-0.3876,-0.3868,-0.3852,-0.3852,-0.384,-0.385,-0.3852,-0.3853,-0.3854,-0.3853,-0.3838,-0.3838,-0.3838,-0.3838,0,-0.4011,-0.4009,-0.3995,-0.398,-0.3969,-0.3957,-0.3945,-0.3938,-0.3931,-0.392,-0.3904,-0.3894,-0.3874,-0.3858,-0.3843,-0.3835,-0.3836,-0.3835,-0.3831,-0.3833,-0.3836,-0.3835,-0.387,-0.3835,-0.3836,-0.3836,-0.3836,-0.3836,-0.399,-0.3978,-0.3967,-0.3952,-0.3943,-0.3932,-0.3921,-0.3914,-0.39,-0.3884,-0.3882,-0.3865,-0.3853,-0.3833,-0.3825,-0.3812,-0.3815,-0.3809,-0.3808,-0.3807,-0.3807,-0.3838,-0.3809,-0.3809,-0.3809,-0.3809,-0.3809,0,-0.396,-0.3953,-0.3939,-0.3924,-0.3912,-0.3914,-0.3902,-0.3892,-0.3877,-0.3866,-0.3854,-0.3836,-0.3821,-0.3812,-0.3797,-0.3789,-0.3788,-0.3785,-0.3786,-0.3784,-0.3805,-0.3809,-0.3785,-0.3785,-0.3785,-0.3785,-0.3785,-0.3785,-0.3943,-0.3924,-0.3921,-0.3897,-0.389,-0.3874,-0.3867,-0.3858,-0.385,-0.383,-0.3818,-0.3812,-0.3802,-0.3787,-0.3774,-0.3772,-0.3766,-0.3763,-0.3761,-0.378,-0.3783,-0.3785,-0.379,-0.3762,-0.3762,-0.3742,-0.3742,-0.3741]}]]